Location: Champignolles
(47.0543°N, 4.5663°E)
Time: 19:50:42
(UTC+00:00)

Cosmos 1328 Rocket - Pass Details

Date: 30 November 2020
Orbit: 601 x 627 km, 82.5° (Epoch: 27 January)

Event Time Altitude Azimuth Distance (km) Brightness Sun altitude
Rises 17:17:59 0° 184° (S) 2,842 7.3 -13.7°
Reaches altitude 10° 17:20:11 10° 184° (S) 1,947 6.4 -14.1°
Maximum altitude 17:24:29 80° 97° (E) 623 3.4 -14.8°
Drops below altitude 10° 17:28:51 10° 11° (NNE) 1,977 5.9 -15.5°
Enters shadow 17:30:19 - 11° (N) 2,569 6.5 -15.7°
